Retour au catalogue

CZ-4B R/B

ActifPO
NORAD 43656·ROCKET BODY·🇨🇳 China

Lancé Oct 24, 2018 depuis Taiyuan Satellite Launch Center

Loading…

Prochains Passages (prochaines 24 heures)

TLE

FraisSource: Space-Track

Époque: Sep 14, 2026, 05:01 UTC

1 43656U 18081B   26257.20948058  .00000155  00000-0  63123-4 0  9990
2 43656  99.3643 182.2070 0204950  10.5679 349.9712 14.31891093412043

Suivez CZ-4B R/B en temps réel avec AllMySat

Download on the App Store